Regional Weather Roundup
Issued by NWS State College, PA

Home | Current Version | Previous Version | Text Only | Print | Product List | Glossary On
Versions: 1 2 3 4 5 6 7 8 9 10 11 12 13 14 15 16 17 18 19 20 21 22 23 24 25 26 27 28 29 30 31 32 33 34 35 36 37 38 39 40 41 42 43 44 45 46 47 48 49 50
000
ASUS41 KCTP 300810
RWRCTP

REGIONAL WEATHER ROUNDUP
NATIONAL WEATHER SERVICE STATE COLLEGE PA
300 AM EST FRI JAN 30 2015

Note: "fair" indicates few or no clouds below 12,000 feet with no
significant weather and/or obstructions to visibility.

* = STATION THAT DOES NOT REPORT PRECIPITATION /E.G. RAIN...SNOW...ETC/
    THUNDER OR FOG.

PAZ002>004-007>009-013>016-020>023-029>032-300900-
WESTERN PENNSYLVANIA

CITY           SKY/WX    TMP DP  RH WIND       PRES   REMARKS
ERIE           LGT SNOW  28  24  85 NW16G28   29.99R FOG
MEADVILLE      LGT SNOW  27  23  85 NW13G22   29.95R FOG
FRANKLIN*      CLOUDY    28  25  86 W12G21    29.94R
NEW CASTLE     LGT SNOW  29  28  96 W9        30.00R FOG
BEAVER COUNTY  NOT AVBL
BUTLER*        CLOUDY    28  27  93 W7        29.98S
PITTSBURGH INT LGT SNOW  30  28  92 W10       29.99R
PITTSBURGH     LGT SNOW  29  25  85 W7        29.97S FOG
INDIANA*       CLOUDY    28  28 100 W6        29.97S FOG
LATROBE        LGT SNOW  28  28 100 W8        29.99S
WASHINGTON CO* CLOUDY    30  27  86 W6        30.02R
$$

PAZ004>006-010>012-017>019-024>028-033>037-041-042-045-046-049>053-300900-
CENTRAL PENNSYLVANIA

CITY           SKY/WX    TMP DP  RH WIND       PRES   REMARKS
BRADFORD       LGT SNOW  26  22  84 W10       29.83R FOG
DUBOIS         LGT SNOW  27  24  89 W12       29.87R FOG
CLEARFIELD     LGT SNOW  27  25  92 W5        29.89S FOG
JOHNSTOWN      SNOW      25  22  88 W20G28    29.87R VSB 1/2 WCI  11
ALTOONA        LGT SNOW  30  25  81 NW15      29.90R
STATE COLLEGE  LGT SNOW  29  27  90 W9        29.88S
WILLIAMSPORT   LGT SNOW  27  24  89 CALM      29.89R FOG
SELINSGROVE    CLOUDY    29  25  85 CALM      29.90F
FT INDIANTOWN  CLOUDY    27  25  93 SW5       29.89S
CAPITAL CITY   CLOUDY    28  25  88 W3        29.91R
HARRISBURG     FLURRIES  28  25  88 NW10      29.90R
YORK           CLOUDY    30  25  81 W5        29.89R
$$

PAZ038>040-043-044-047-048-054-055-060>062-067>071-300900-
EASTERN PENNSYLVANIA

CITY           SKY/WX    TMP DP  RH WIND       PRES   REMARKS
SCRANTON       CLOUDY    27  24  89 SW3       29.84F FOG
MOUNT POCONO   LGT SNOW  24  21  88 W7        29.77F FOG
ALLENTOWN      CLOUDY    28  25  86 CALM      29.88F
QUAKERTOWN*    CLOUDY    28  25  86 CALM      29.87F
READING        CLOUDY    28  25  88 NW5       29.88F
LANCASTER      CLOUDY    29  24  82 NW3       29.88S
COATESVILLE    CLOUDY    32  25  74 CALM      29.87S
POTTSTOWN      CLOUDY    29  25  85 CALM      29.90F
BLUE BELL      CLOUDY    32  28  86 CALM      29.88S
DOYLESTOWN     CLOUDY    28  26  92 CALM      29.87F
WILLOW GROVE   NOT AVBL
NORTH PHILA    CLOUDY    33  25  72 CALM      29.91F
PHILADELPHIA   CLOUDY    35  25  66 S5        29.90F
$$


USA.gov is the U.S. government's official web portal to all federal, state and local government web resources and services.